Location: Deerlick Astronomy Village
(33.5614°N, 82.7631°W)
Time: 12:15:01
(UTC-04:00)

Iridium 66 - Visible Passes

Search period start: 22 September 2014 00:00
Search period end: 02 October 2014 00:00
Orbit: 776 x 779 km, 86.4° (Epoch: 21 September)

Date Brightness Start Highest point End Pass type
(mag) Time Alt. Az. Time Alt. Az. Time Alt. Az.
22 Sep 6.1 19:51:30 10° SSE 19:56:33 54° E 20:01:37 10° NNE visible
22 Sep 9.1 21:35:05 10° WSW 21:37:34 13° WNW 21:40:04 10° NW visible
23 Sep 9.6 06:28:24 10° NE 06:30:11 12° ENE 06:31:57 10° E visible
23 Sep 8.3 20:59:29 10° SW 21:03:47 26° W 21:08:07 10° NNW visible
24 Sep 7.0 20:25:06 10° SSW 20:30:08 51° W 20:35:12 10° N visible
25 Sep 6.0 19:51:25 10° S 19:56:36 82° E 20:01:49 10° N visible
26 Sep 9.1 06:26:59 10° NE 06:30:28 18° E 06:33:55 10° ESE visible
26 Sep 8.9 21:00:36 10° WSW 21:04:02 18° W 21:07:28 10° NW visible
27 Sep 7.9 20:25:38 10° SSW 20:30:18 34° W 20:35:00 10° NNW visible
28 Sep 6.5 19:51:32 10° S 19:56:41 67° W 20:01:52 10° N visible
29 Sep 8.5 06:26:21 10° NNE 06:30:42 26° E 06:35:01 10° SE visible
29 Sep 9.5 21:02:37 10° W 21:04:19 12° WNW 21:06:01 10° WNW visible
30 Sep 9.3 05:54:22 10° NE 05:56:55 14° ENE 05:59:28 10° ESE visible
30 Sep 8.6 20:26:27 10° SW 20:30:30 23° W 20:34:34 10° NNW visible
01 Oct 6.3 06:59:15 10° N 07:04:28 78° E 07:09:39 10° S visible
01 Oct 7.4 19:51:53 10° SSW 19:56:49 44° W 20:01:47 10° NNW visible
